WetterOnline ( http://www.wetteronline.de )

Wetter aktuell Giesensdorf

Aktuelles Wetter: Boizenburg (46m)

6-stündlich | Neueste Meldungen
Ortszeit Temperatur Wetter
Fr, 25.05. 14:00 26.3° C wolkig
Fr, 25.05. 8:00 17.8° C leicht bewölkt
Fr, 25.05. 2:00 15.0° C wolkenlos
Do, 24.05. 20:00 22.9° C fast wolkenlos
Do, 24.05. 14:00 24.9° C fast wolkenlos
Do, 24.05. 8:00 15.9° C leicht bewölkt
Do, 24.05. 2:00 14.3° C fast wolkenlos
Mi, 23.05. 20:00 22.3° C leicht bewölkt
Ortszeit Temperatur Wetter
Fr, 25.05. 18:30 22.4° C leicht bewölkt
Fr, 25.05. 18:20 22.4° C leicht bewölkt
Fr, 25.05. 18:10 22.6° C leicht bewölkt
Fr, 25.05. 18:00 23.2° C leicht bewölkt
Fr, 25.05. 17:50 23.2° C leicht bewölkt
Fr, 25.05. 17:40 23.2° C leicht bewölkt
Fr, 25.05. 17:30 24.7° C wolkenlos
Fr, 25.05. 17:00 25.5° C leicht bewölkt
Fr, 25.05. 16:30 25.6° C leicht bewölkt
Fr, 25.05. 16:00 26.3° C wolkig
Fr, 25.05. 15:30 25.9° C leicht bewölkt
Ortszeit Relative Feuchte Sichtweite
Fr, 25.05. 14:00 33% 26 km
Fr, 25.05. 8:00 59% 28 km
Fr, 25.05. 2:00 65% 50 km
Do, 24.05. 20:00 41% 65 km
Do, 24.05. 14:00 34% 15 km
Do, 24.05. 8:00 61% 25 km
Do, 24.05. 2:00 57% 60 km
Mi, 23.05. 20:00 41% 55 km
Ortszeit Relative Feuchte Sichtweite
Fr, 25.05. 18:30 45% 60 km
Fr, 25.05. 18:20 45% -
Fr, 25.05. 18:10 45% -
Fr, 25.05. 18:00 40% 50 km
Fr, 25.05. 17:50 40% -
Fr, 25.05. 17:40 41% -
Fr, 25.05. 17:30 35% 40 km
Fr, 25.05. 17:00 32% 45 km
Fr, 25.05. 16:30 30% 40 km
Fr, 25.05. 16:00 30% 45 km
Fr, 25.05. 15:30 32% 50 km
Ortszeit Niederschlagsmenge Niederschlagsart
Fr, 25.05. 14:00 0.1 l/m2 in 6 Std. Sprühregen
Fr, 25.05. 8:00 0.0 l/m2 in 12 Std. -
Fr, 25.05. 2:00 0.0 l/m2 in 6 Std. -
Do, 24.05. 20:00 0.0 l/m2 in 12 Std. -
Do, 24.05. 14:00 0.1 l/m2 in 6 Std. Sprühregen
Do, 24.05. 8:00 0.0 l/m2 in 12 Std. -
Do, 24.05. 2:00 0.0 l/m2 in 6 Std. -
Mi, 23.05. 20:00 0.1 l/m2 in 12 Std. Niederschlag
Ortszeit Niederschlagsmenge Niederschlagsart
Fr, 25.05. 18:30 0.0 l/m2 in 1 Std. -
Fr, 25.05. 18:20 keine Meldung -
Fr, 25.05. 18:10 keine Meldung -
Fr, 25.05. 18:00 0.0 l/m2 in 1 Std. -
Fr, 25.05. 17:50 keine Meldung -
Fr, 25.05. 17:40 keine Meldung -
Fr, 25.05. 17:30 0.0 l/m2 in 1 Std. -
Fr, 25.05. 17:00 0.0 l/m2 in 1 Std. -
Fr, 25.05. 16:30 0.0 l/m2 in 1 Std. -
Fr, 25.05. 16:00 0.0 l/m2 in 1 Std. -
Fr, 25.05. 15:30 0.0 l/m2 in 1 Std. -
Ortszeit Stärke Spitze Richtung
km/h Bft. km/h Grad Sektor
Fr, 25.05. 14:00 22 4 44 90° O
Fr, 25.05. 8:00 17 3 28 70° O
Fr, 25.05. 2:00 13 3 43 60° NO
Do, 24.05. 20:00 25 4 58 60° NO
Do, 24.05. 14:00 29 5 47 100° O
Do, 24.05. 8:00 14 3 25 70° O
Do, 24.05. 2:00 14 3 32 40° NO
Mi, 23.05. 20:00 18 3 50 30° NO
Ortszeit Stärke Spitze Richtung
km/h Bft. km/h Grad Sektor
Fr, 25.05. 18:30 24 4 44 10° N
Fr, 25.05. 18:20 24 4 - 10° N
Fr, 25.05. 18:10 22 4 - 10° N
Fr, 25.05. 18:00 22 4 50 20° N
Fr, 25.05. 17:50 22 4 - 20° N
Fr, 25.05. 17:40 25 4 - 20° N
Fr, 25.05. 17:30 24 4 39 30° NO
Fr, 25.05. 17:00 26 4 41 40° NO
Fr, 25.05. 16:30 22 4 32 50° NO
Fr, 25.05. 16:00 19 3 35 70° O
Fr, 25.05. 15:30 22 4 36 40° NO
Ortszeit Untergrenze Bedeckung Gattung
total tief tief mittel hoch
Fr, 25.05. 14:00 1800 m 6/8 5/8 - - -
Fr, 25.05. 8:00 6000 m 2/8 2/8 - - -
Fr, 25.05. 2:00 - 0/8 0/8 - - -
Do, 24.05. 20:00 10500 m 1/8 0/8 - - -
Do, 24.05. 14:00 10500 m 2/8 0/8 - - -
Do, 24.05. 8:00 4500 m 4/8 4/8 - - -
Do, 24.05. 2:00 5100 m 1/8 1/8 - - -
Mi, 23.05. 20:00 6000 m 3/8 2/8 - - -
Ortszeit Bedeckungsgrad in Achtel und Wolkenuntergrenze
Fr, 25.05. 18:30 1(4800m)
Fr, 25.05. 18:20 1(4800m) 1(5400m) 2(6600m)
Fr, 25.05. 18:10 1(4800m) 2(5400m) 4(6600m)
Fr, 25.05. 18:00 1(6000m) 3(6600m) 5(12000m)
Fr, 25.05. 17:50 1(6000m) 3(6600m)
Fr, 25.05. 17:40 2(6300m)
Fr, 25.05. 17:30 keine Wolken
Fr, 25.05. 17:00 2(2400m) 3(5400m)
Fr, 25.05. 16:30 4(2400m)
Fr, 25.05. 16:00 5(2400m) 5(10500m)
Fr, 25.05. 15:30 4(2100m) 4(2400m)
Ortszeit Luftdruck NN (hPa) Tendenz (hPa in 3 Std.)
Fr, 25.05. 14:00 1021 - 0,7
Fr, 25.05. 8:00 1022 - 0,1
Fr, 25.05. 2:00 1023 + 0,2
Do, 24.05. 20:00 1021 - 0,5
Do, 24.05. 14:00 1023 - 1,3
Do, 24.05. 8:00 1025 + 0,1
Do, 24.05. 2:00 1025 + 0,2
Mi, 23.05. 20:00 1023 + 0,6
Ortszeit Luftdruck NN (hPa) Tendenz (hPa in 3 Std.)
Fr, 25.05. 18:30 1021 - 0,2
Fr, 25.05. 18:20 1021 keine Meldung
Fr, 25.05. 18:10 1021 keine Meldung
Fr, 25.05. 18:00 1021 - 0,6
Fr, 25.05. 17:50 1021 keine Meldung
Fr, 25.05. 17:40 1021 keine Meldung
Fr, 25.05. 17:30 1021 - 0,7
Fr, 25.05. 17:00 1021 - 0,9
Fr, 25.05. 16:30 1021 - 1,0
Fr, 25.05. 16:00 1021 - 0,9
Fr, 25.05. 15:30 1021 - 0,9
Ortszeit Schneehöhe (cm)
Fr, 25.05. 14:00 -
Fr, 25.05. 8:00 -
Fr, 25.05. 2:00 -
Do, 24.05. 20:00 -
Do, 24.05. 14:00 -
Do, 24.05. 8:00 -
Do, 24.05. 2:00 -
Mi, 23.05. 20:00 -
Ortszeit Schneehöhe (cm)
Fr, 25.05. 18:30 -
Fr, 25.05. 18:20 -
Fr, 25.05. 18:10 -
Fr, 25.05. 18:00 -
Fr, 25.05. 17:50 -
Fr, 25.05. 17:40 -
Fr, 25.05. 17:30 -
Fr, 25.05. 17:00 -
Fr, 25.05. 16:30 -
Fr, 25.05. 16:00 -
Fr, 25.05. 15:30 -
Link zu dieser Seite / Seite empfehlen

Das Wetter in ...